Regional Weather Roundup
Issued by NWS Wakefield, VA

Home | Current Version | Previous Version | Graphics & Text | Print | Product List | Glossary On
Versions: 1 2 3 4 5 6 7 8 9 10 11 12 13 14 15 16 17 18 19 20 21 22 23 24 25 26 27 28 29 30 31 32 33 34 35 36 37 38 39 40 41 42 43 44 45 46 47 48 49 50
000
ASUS41 KAKQ 261510
RWRAKQ

REGIONAL WEATHER ROUNDUP
NATIONAL WEATHER SERVICE WAKEFIELD VA
1000 AM EST WED NOV 26 2014

Note: "fair" indicates few or no clouds below 12,000 feet with no
significant weather and/or obstructions to visibility. * = Denotes
station may not report precipitation (e.g., rain,snow,etc.),
thunder or fog.

VAZ042-051-052>054-056-261600-
NORTHERN VIRGINIA

CITY           SKY/WX    TMP DP  RH WIND       PRES   REMARKS
WASH NATIONAL  RAIN      42  35  76 NE17      30.07F
DULLES         LGT SNOW  35  34  96 N9        30.06R FOG
FORT BELVOIR   LGT RAIN  39  36  87 N5        30.08F FOG
QUANTICO       RAIN      41  36  82 NE12      30.08R
FREDERICKSBRG* RAIN      40  40 100 N10       30.05F
STAFFORD*      RAIN      39  39 100 N7        30.10S
WARRENTON      RAIN      38  38 100 N10       30.05F
CULPEPER*      RAIN      37  36  93 N9        30.07F
MANASSAS*      LGT RAIN  39  39 100 NE12      30.06R
LEESBURG*      LGT SNOW  36  36 100 NE5       30.08F
WINCHESTER     SNOW      34  32  93 CALM      30.08F VSB 1/2
FRONT ROYAL*   CLOUDY    32  32 100 CALM      30.04F VSB 1/4
LURAY*           N/A    N/A N/A N/A MISG        N/A
$$

VAZ048-049-060>072-079>083-261600-
CENTRAL AND SOUTH CENTRAL VIRGINIA

CITY           SKY/WX    TMP DP  RH WIND       PRES   REMARKS
RICHMOND       RAIN      44  41  89 N14       30.00S FOG
CHESTERFIELD*  CLOUDY    43  30  61 N8        30.02R
PETERSBURG*    RAIN      44  43  95 N13       29.99R
HANOVER        RAIN      41  39  93 N7        30.04R FOG
TAPPAHANNOCK*  HVY RAIN  43  40  88 N9        30.00S
QUINTON*       CLOUDY    42  41  95 N6        29.97F
CHARLOTTSVILLE LGT SNOW  33  32  96 N7        30.03F FOG
GORDONSVILLE*  CLOUDY    35  33  93 N5        30.06R FOG
ORANGE*        RAIN      36  36 100 N6        30.08R
LOUISA*        RAIN      39  36  87 NE7       30.04R
BUMPASS*       CLOUDY    38  37  93 NE3       30.04S
FARMVILLE*     RAIN      42  42 100 NE10G16     N/A
CREWE*         CLOUDY    42  40  93 N3        30.00S
FORT PICKETT*  CLOUDY    42  41  97 N10       30.00R
CHASE CITY*    CLOUDY    44  44 100 N9        29.97S
CLARKSVILLE*   CLOUDY    43  41  93 N10       29.96F
SOUTH HILL*    CLOUDY    42  41  95 N12G18    30.01F
LAWRENCEVILLE* CLOUDY    42  42  97 N7        29.96S
$$

VAZ088>098-261600-
SOUTHEAST VIRGINIA

CITY           SKY/WX    TMP DP  RH WIND       PRES   REMARKS
NORFOLK        HVY RAIN  47  44  90 N22G33    29.85F FOG
VIRGINIA BEACH HVY RAIN  50  47  89 N23G32    29.83F FOG
NORFOLK NAVAL  LGT RAIN  49  44  83 N31G39    29.88F FOG
WEST POINT*    CLOUDY    46  44  90 N12       29.96F
SALUDA*        CLOUDY    44  42  93 MISG      29.95S
NEWPORT NEWS   RAIN      48  44  86 NE16G26   29.89F VSB 1
LANGLEY AFB    MIX PCPN  46 N/A N/A N25G32    29.87F VSB 3/4
FORT EUSTIS    RAIN      45  45 100 N12G22    29.88R FOG
WILLIAMSBURG*  CLOUDY    46  46 100 N12G21    29.92F
HR EXEC AP*    CLOUDY    46  43  87 N12G26    29.87F
FRANKLIN*      CLOUDY    45  45 100 N14G20    29.89R
WAKEFIELD      HVY RAIN  45  42  89 N14G21    29.93R FOG
$$

VAZ020-022-025-037-045-261600-
WEST CENTRAL AND SOUTHWEST VIRGINIA

CITY           SKY/WX    TMP DP  RH WIND       PRES   REMARKS
STAUNTON*      SNOW      33  32  96 CALM      30.05F VSB 1/2
WAYNESBORO*    CLOUDY    32  32 100 N3        30.01S VSB 3/4
HOT SPRINGS VA SNOW      32  32 100 NE3       29.92R VSB 1/4
LYNCHBURG      LGT RAIN  39  38  96 NE12      30.02R
DANVILLE       LGT RAIN  43  39  86 N12       29.99S
SOUTH BOSTON*  CLOUDY    41  40  94 NE10      29.98F
MARTINSVILLE   LGT RAIN  40  40 100 N8        30.03S
ROANOKE        LGT SNOW  33  32  96 CALM      30.05F FOG
BLACKSBURG     LGT SNOW  34  34 100 CALM      30.02R
DUBLIN*        MIX PCPN  34  34 100 CALM      30.02R
MARION*        SNOW      34  33  96 CALM      30.02S VSB 1/2
HILLSVILLE*    LGT SNOW  32  32 100 NW6       29.98R VSB 3/4
RICHLANDS*     SNOW      36  34  94 CALM      29.99S VSB 1/4
WISE*          CLOUDY    34  34 100 CALM      30.02R
ABINGDON*      LGT RAIN  37  36  97 CALM      30.01F
$$

MDZ021>025-VAZ099-100-261600-
SOUTHERN MARYLAND AND THE DELMARVA PENINSULA

CITY           SKY/WX    TMP DP  RH WIND       PRES   REMARKS
PATUXENT RIVER LGT RAIN  43  39  86 N18G26    29.99F FOG
BAY BRIDGE APT RAIN      37  37 100 NE9       30.05F
LEONARDTOWN    CLOUDY    41  37  87 N8        30.01F
DOVER          RAIN      39  39 100 N16       30.02F FOG
GEORGETOWN     LGT RAIN  44  41  89 N16G24    30.00F FOG
EASTON         LGT RAIN  41  41 100 NE14G21   30.04F FOG
CAMBRIDGE      CLOUDY    43  41  93 NE10G23   29.98F
SALISBURY      RAIN      45  42  89 N18G25    29.92F FOG
OCEAN CITY     RAIN      47  45  93 NE16G26   29.92F FOG
WALLOPS ISLAND LGT RAIN  45  44  97 NE15G23   29.88F FOG
ACCOMACK*      RAIN      45  43  93 N13G21    29.89F
$$

NCZ012>017-030>032-261600-
NORTH CENTRAL AND EASTERN NORTH CAROLINA

CITY           SKY/WX    TMP DP  RH WIND       PRES   REMARKS
ROANOKE RAPIDS LGT RAIN  43  43 100 N17G24    29.91R
RALEIGH        LGT RAIN  45  41  86 NE15G23   29.93F FOG
ELIZABETH CITY RAIN      53  49  86 N18       29.78S FOG
AHOSKIE*       LGT RAIN  44  42  94 N12G21    29.89R VSB 1
EDENTON*       RAIN      49  48  98 N16G22    29.79S
CURRITUCK*     RAIN      51  49  93 N21G29    29.80F
KILL DEVIL HLS LGT RAIN  59  58  99 NW9       29.72R
MANTEO         RAIN      60  59  98 N16       29.73F
CAPE HATTERAS  LGT RAIN  72  70  93 S21G30    29.74F FOG
TARBORO*       RAIN      45  43  93 N14G24    29.88S
GOLDSBORO      CLOUDY    46  45  93 N16G26    29.85S
WASHINGTON     CLOUDY    47  46  95 NW12G22   29.81R
GREENVILLE     HVY RAIN  45  45 100 N17G23    29.87S
NEW BERN       HVY RAIN  53  49  86 NW16G26   29.79R FOG
WILMINGTON     HVY RAIN  51  49  92 NW22G29   29.83R FOG
$$

VAZ048-261600-
ELSEWHERE

CITY           SKY/WX    TMP DP  RH WIND       PRES   REMARKS
HARRISBURG PA  LGT SNOW  33  32  96 CALM      30.12R VSB 3/4
BALTIMORE      RAIN      39  36  89 N7        30.08F FOG
ANNAPOLIS      RAIN      40  37  89 NE7       30.06F FOG
ANDREWS AFB    RAIN      37  36  93 NE13      30.04F FOG
PHILADELPHIA   RAIN      38  35  89 NE13      30.12R FOG
WILDWOOD NJ*   CLOUDY    43  37  81 N18       29.99F
HENDERSON NC   RAIN      43  41  93 N10G18    29.94F
GREENSBORO     LGT RAIN  43  40  89 N9        29.97S
ROCKY MOUNT    RAIN      46  43  89 N20G30    29.90R FOG
$$

VAZ100-261600-
MARINE

STATION/POSITION TIME  TEMP    WIND        PRES    WAVE   SWELL
                       AIR SEA DIR/SP/G            HT/PER HT/PER
                 (UTC) (F)     (DEG/KT/KT) (MB)    (FT/S) (FT/S)
CAPE MAY NJ      1500   43 51   10/  9/ 17 1015.8F
LEWES DE         1500   45 49   20/ 26/ 30 1015.5F
15NM E FENWICK I 1500   49 55              1012.0F   9/ 7
OCEAN-CITY-INLET 1500   47 50   30/ 11/ 20 1013.1F
WACHAPREAGUE VA  1500   45 51   20/ 12/ 19 1011.6F
THOMAS POINT MD  1500   40 48   30/ 18/ 20 1018.3F
GOOSES REEF MD   1500   41 49   30/ 21/ 25 1016.5F   2/ 3
COVE POINT MD    1500   41      30/ 23/ 28 1015.4F
SOLOMONS ISLAND  1500      50                N/A
BISHOPS HEAD MD  1500   43 47   20/ 14/ 24 1013.3F
PINEY POINT MD   1500           40/ 13/ 20   N/A
POTOMAC MD       1500   44 50   40/ 21/ 31 1013.6F   1/ 3
CAMBRIDGE MD     1500   42 46   30/ 19/ 24 1015.2F
LEWISETTA VA     1500   44 49   20/ 15/ 24 1014.7F
RAPPAHANNOCK LGT 1500          360/ 33/ 36 1012.1F
STINGRAY PT      1500   45 50   20/ 25/ 33 1013.1F   4/ 4
YORK RVR RNG VA  1500   46      20/ 24/ 32 1011.4R
YORKTOWN VA      1500   46 51   10/ 18/ 23 1012.2F
JAMESTOWN VA     1500   44 51   20/ 10/ 17   N/A     0
DOMINION TERM VA 1500   47      60/  3/ 11 1011.8R
KIPTOPEKE VA     1500      56   20/ 17/ 23   N/A
CHES BAY BRIDGE  1500   46 52  360/ 29/ 35 1010.3S
CAPE HENRY VA    1500   48      20/ 37/ 41 1008.7F
CHESAPEAKE LGHT  1400   52      30/ 33/ 37 1009.2F
WILLOUBY STN VA  1500   46      10/ 24/ 27 1009.7F
S CRANEY ISL VA  1500          350/ 22/ 27 1011.4R
CAPE HENRY BUOY  1400      56                N/A    10/ 8   2/11
1ST LANDING BUOY 1500   48 53  360/ 19/ 25 1010.7F   6/ 5
CAPE CHARLES BUO 1500      55                N/A     8/ 7   5/17
64NM E OF VA BCH 1500   73 67  180/ 21/ 27 1005.0F   8/ 8   7/ 8
DUCK PIER NC     1500   55 58  340/ 28/ 32 1005.6F
44100 DUCK FRF   1500      60                N/A     9/ 7   2/11
44056 DUCK FRF   1500      58                N/A     8/ 7   2/11
OREGON INLET NC  1500   64 57  180/ 15/ 18 1006.4F
HATTERAS NC      1500   73 62  170/ 16/ 23 1007.1F
DIAMOND SHLS NC  1500   76     180/ 25/ 29 1007.0F  11/ 8   2/13



USA.gov is the U.S. government's official web portal to all federal, state and local government web resources and services.